Home > Weather > Rouyn-Noranda > Past weeks

Flag for Canada Past Weather in Rouyn-Noranda, Quebec, Canada — Yesterday and Last 2 Weeks

Now
66 °F

Fog.


Feels Like: 66 °F
Forecast: 62 / 75 °F
Wind: 6 mph from Southwest

Location: Rouyn Airport

Current Time: Jul 25, 2016 at 10:00:44 AM

Latest Report: Jul 25, 2016 at 9:00 AM


Visibility: 2 mi

Pressure: 29.71 "Hg

Humidity: 100%

Dew Point: 66 °F

Location of Rouyn-NorandaLocation

Past Weather in Rouyn-Noranda — Graph

°F

Rouyn-Noranda Temperature Yesterday

Maximum temperature yesterday: 75 °F (at 1:00 PM)
Minimum temperature yesterday: 50 °F (at 3:00 AM)
Average temperature yesterday: 62 °F

High & Low Weather Summary for the Past Weeks

 TemperatureHumidityPressure
High88 °F (Jul 12, 5:00 PM)100% (Jul 14, 5:04 AM)30.21 "Hg (Jul 14, 5:04 AM)
Low37 °F (Jul 16, 5:00 AM)38% (Jul 19, 4:00 PM)29.49 "Hg (Jul 14, 3:00 PM)
Average65 °F74%29.91 "Hg
* Reported Jul 10 9:00 AM — Jul 25 9:00 AM, Rouyn-Noranda, Weather by CustomWeather, © 2016

Note: Actual official high and low records may vary slightly from our data, if they occured in-between our weather recording intervals... More about our weather records

Advertising

Rouyn-Noranda Weather History for the Previous 24 Hours

Scroll right to see more
 ConditionsComfort  
Time TempWeatherWind HumidityBarometerVisibility
9:00 AM
Mon, Jul 25
66 °FFog.6 mph100%29.71 "Hg2 mi
8:00 AM66 °FDrizzle. Fog.5 mph94%29.72 "Hg1 mi
7:00 AM64 °FFog.5 mph100%29.72 "Hg2 mi
6:00 AM64 °FFog.9 mph94%29.73 "Hg3 mi
5:00 AM64 °FLow clouds.9 mph100%29.74 "Hg15 mi
4:45 AM64 °FLow clouds.8 mph100%29.74 "Hg15 mi
4:00 AM64 °FPassing clouds.8 mph94%29.75 "Hg15 mi
3:00 AM63 °FLow clouds.8 mph100%29.75 "Hg15 mi
2:00 AM64 °FOvercast.8 mph88%29.77 "Hg15 mi
1:52 AM64 °FOvercast.8 mph88%29.78 "Hg15 mi
1:00 AM63 °FLight rain. Overcast.6 mph94%29.80 "Hg15 mi
12:00 AM63 °FLight rain. Overcast.7 mph94%29.82 "Hg15 mi
11:00 PM
Sun, Jul 24
63 °FOvercast.6 mph94%29.85 "Hg15 mi
10:00 PM63 °FRain showers. Overcast.7 mph94%29.86 "Hg3 mi
9:47 PM64 °FSprinkles. Overcast.6 mph88%29.87 "Hg15 mi
9:00 PM64 °FLow clouds.10 mph88%29.87 "Hg15 mi
8:00 PM64 °FLow clouds.10 mph88%29.88 "Hg15 mi
7:00 PM64 °FLow clouds.10 mph94%29.90 "Hg10 mi
6:02 PM66 °FSprinkles. More clouds than sun.12 mph88%29.94 "Hg10 mi
5:00 PM66 °FLight rain. Mostly cloudy.9 mph88%29.96 "Hg5 mi
4:00 PM68 °FLight rain. More clouds than sun.6 mph83%29.96 "Hg12 mi
3:00 PM75 °FMostly cloudy.7 mph57%29.95 "Hg15 mi
2:00 PM75 °FMore clouds than sun.10 mph54%29.96 "Hg15 mi
1:00 PM75 °FPartly sunny.13 mph50%29.97 "Hg15 mi
12:00 PM73 °FPartly sunny.10 mph53%30.01 "Hg15 mi
11:00 AM70 °FPartly sunny.10 mph57%30.02 "Hg15 mi
10:00 AM70 °FPartly sunny.10 mph60%30.04 "Hg15 mi
Weather by CustomWeather, © 2016

See weather overviewHow to use our weather pages